N750TL KJFK-KBOS

Flight info

Callsign N750TL
Flight time 0h 46m
Altitude 9500
Route KJFK KBOS REQUESTING VFR ON TOP
Aircraft SF50/L-V/N

Departure

Time 2026-05-08 21:29
Airport John F. Kennedy International Airport (KJFK)

Arrival

Time 2026-05-08 22:16
Airport Boston Logan International Airport (KBOS)
Time Latitude Longitude Altitude Speed Heading
2026-05-08 21:09 40.64880 -73.80622 14 ft 0 kts 16°
2026-05-08 21:20 40.64904 -73.80636 14 ft 10 kts 294°
2026-05-08 21:21 40.64888 -73.80721 14 ft 17 kts 245°
2026-05-08 21:21 40.64843 -73.80808 14 ft 8 kts 219°
2026-05-08 21:21 40.64831 -73.80819 14 ft 0 kts 211°
2026-05-08 21:22 40.64782 -73.80854 14 ft 20 kts 210°
2026-05-08 21:22 40.64662 -73.80896 15 ft 18 kts 119°
2026-05-08 21:23 40.64598 -73.80748 15 ft 19 kts 119°
2026-05-08 21:23 40.64535 -73.80609 14 ft 17 kts 122°
2026-05-08 21:23 40.64475 -73.80479 14 ft 16 kts 121°
2026-05-08 21:23 40.64422 -73.80362 14 ft 14 kts 121°
2026-05-08 21:24 40.64367 -73.80238 14 ft 17 kts 120°
2026-05-08 21:24 40.64309 -73.80095 14 ft 3 kts 118°
2026-05-08 21:24 40.64307 -73.80091 14 ft 6 kts 117°
2026-05-08 21:24 40.64213 -73.79941 15 ft 37 kts 134°
2026-05-08 21:25 40.64057 -73.79665 15 ft 44 kts 120°
2026-05-08 21:25 40.63926 -73.79362 14 ft 28 kts 123°
2026-05-08 21:25 40.63832 -73.79171 15 ft 22 kts 122°
2026-05-08 21:25 40.63746 -73.78981 15 ft 26 kts 120°
2026-05-08 21:26 40.63645 -73.78758 16 ft 30 kts 120°
2026-05-08 21:26 40.63558 -73.78561 16 ft 15 kts 120°
2026-05-08 21:26 40.63499 -73.78425 16 ft 20 kts 118°
2026-05-08 21:26 40.63417 -73.78266 16 ft 18 kts 136°
2026-05-08 21:27 40.63389 -73.78245 16 ft 0 kts 204°
2026-05-08 21:27 40.63332 -73.78272 16 ft 18 kts 211°
2026-05-08 21:28 40.63326 -73.78340 15 ft 0 kts 321°
2026-05-08 21:28 40.63333 -73.78352 15 ft 0 kts 303°
2026-05-08 21:28 40.63472 -73.78662 17 ft 81 kts 300°
2026-05-08 21:29 40.63852 -73.79533 196 ft 129 kts 300°
2026-05-08 21:29 40.64343 -73.80681 457 ft 153 kts 298°
2026-05-08 21:29 40.64427 -73.81908 1396 ft 131 kts 246°
2026-05-08 21:29 40.63710 -73.82737 1948 ft 151 kts 217°
2026-05-08 21:30 40.62667 -73.83047 2512 ft 170 kts 170°
2026-05-08 21:30 40.61610 -73.82334 3229 ft 164 kts 154°
2026-05-08 21:30 40.60826 -73.81138 3613 ft 187 kts 122°
2026-05-08 21:30 40.59971 -73.79915 4088 ft 184 kts 159°
2026-05-08 21:31 40.58837 -73.79131 4652 ft 181 kts 156°
2026-05-08 21:31 40.57777 -73.78324 5364 ft 175 kts 157°
2026-05-08 21:31 40.56743 -73.77483 5936 ft 176 kts 155°
2026-05-08 21:31 40.55762 -73.76654 6716 ft 159 kts 161°
2026-05-08 21:32 40.54727 -73.75864 6848 ft 192 kts 157°
2026-05-08 21:32 40.53519 -73.74893 6909 ft 206 kts 157°
2026-05-08 21:32 40.52344 -73.73939 7474 ft 196 kts 157°
2026-05-08 21:32 40.51183 -73.72972 7817 ft 199 kts 156°
2026-05-08 21:33 40.50019 -73.71960 8164 ft 202 kts 154°
2026-05-08 21:33 40.48855 -73.70909 8503 ft 204 kts 153°
2026-05-08 21:33 40.47691 -73.69814 8832 ft 207 kts 152°
2026-05-08 21:33 40.46545 -73.68657 9149 ft 212 kts 144°
2026-05-08 21:34 40.45921 -73.66865 9409 ft 227 kts 94°
2026-05-08 21:34 40.46356 -73.64883 9452 ft 230 kts 52°
2026-05-08 21:34 40.47266 -73.63123 9459 ft 236 kts 48°
2026-05-08 21:34 40.48201 -73.61318 9462 ft 241 kts 49°
2026-05-08 21:35 40.49148 -73.59487 9458 ft 243 kts 49°
2026-05-08 21:35 40.50102 -73.57644 9459 ft 244 kts 49°
2026-05-08 21:35 40.51055 -73.55800 9457 ft 244 kts 49°
2026-05-08 21:35 40.51997 -73.53974 9457 ft 245 kts 49°
2026-05-08 21:36 40.52965 -73.52098 9460 ft 245 kts 49°
2026-05-08 21:36 40.53948 -73.50218 9449 ft 268 kts 49°
2026-05-08 21:36 40.55078 -73.48108 9462 ft 293 kts 49°
2026-05-08 21:36 40.56294 -73.45875 9470 ft 309 kts 49°
2026-05-08 21:37 40.57578 -73.43538 9472 ft 313 kts 49°
2026-05-08 21:37 40.58748 -73.41386 9457 ft 270 kts 49°
2026-05-08 21:37 40.59782 -73.39457 9450 ft 246 kts 49°
2026-05-08 21:37 40.60727 -73.37662 9451 ft 231 kts 49°
2026-05-08 21:38 40.61612 -73.35954 9451 ft 222 kts 49°
2026-05-08 21:38 40.62461 -73.34295 9453 ft 215 kts 49°
2026-05-08 21:38 40.63284 -73.32683 9451 ft 211 kts 49°
2026-05-08 21:38 40.64092 -73.31085 9451 ft 208 kts 49°
2026-05-08 21:39 40.64885 -73.29511 9461 ft 206 kts 48°
2026-05-08 21:39 40.65684 -73.27903 9457 ft 220 kts 49°
2026-05-08 21:39 40.66593 -73.26121 9472 ft 249 kts 49°
2026-05-08 21:39 40.67635 -73.24146 9471 ft 275 kts 49°
2026-05-08 21:40 40.68768 -73.22024 9470 ft 289 kts 49°
2026-05-08 21:40 40.69945 -73.19836 9468 ft 296 kts 49°
2026-05-08 21:40 40.71149 -73.17611 9467 ft 300 kts 48°
2026-05-08 21:41 40.73662 -73.13120 9465 ft 306 kts 47°
2026-05-08 21:41 40.74955 -73.10874 9457 ft 309 kts 47°
2026-05-08 21:41 40.76310 -73.08672 9451 ft 305 kts 39°
2026-05-08 21:41 40.78051 -73.07194 9445 ft 295 kts 19°
2026-05-08 21:42 40.79921 -73.06088 9455 ft 295 kts 16°
2026-05-08 21:42 40.81824 -73.05093 9452 ft 292 kts 10°
2026-05-08 21:42 40.83775 -73.04456 9456 ft 286 kts
2026-05-08 21:42 40.85719 -73.03924 9458 ft 286 kts
2026-05-08 21:43 40.87657 -73.03412 9458 ft 288 kts
2026-05-08 21:43 40.89646 -73.02891 9458 ft 287 kts
2026-05-08 21:43 40.91592 -73.02383 9456 ft 286 kts
2026-05-08 21:43 40.93553 -73.01886 9463 ft 287 kts
2026-05-08 21:44 40.95529 -73.01408 9461 ft 290 kts
2026-05-08 21:44 40.97493 -73.00953 9461 ft 289 kts
2026-05-08 21:44 40.99469 -73.00514 9458 ft 287 kts
2026-05-08 21:44 41.01447 -73.00094 9455 ft 288 kts
2026-05-08 21:45 41.03428 -72.99692 9454 ft 288 kts
2026-05-08 21:45 41.05407 -72.99310 9446 ft 287 kts
2026-05-08 21:45 41.07384 -72.98946 9447 ft 287 kts
2026-05-08 21:45 41.09364 -72.98599 9447 ft 287 kts
2026-05-08 21:46 41.11339 -72.98271 9450 ft 284 kts 360°
2026-05-08 21:46 41.13250 -72.97595 9439 ft 297 kts 21°
2026-05-08 21:46 41.14930 -72.95941 9439 ft 300 kts 31°
2026-05-08 21:46 41.16042 -72.94854 9445 ft 301 kts 30°
2026-05-08 21:47 41.17659 -72.93052 9442 ft 307 kts 39°
2026-05-08 21:47 41.19046 -72.90874 9439 ft 308 kts 47°
2026-05-08 21:47 41.20317 -72.88581 9438 ft 309 kts 49°
2026-05-08 21:47 41.21654 -72.86342 9437 ft 309 kts 44°
2026-05-08 21:48 41.23065 -72.84189 9438 ft 309 kts 43°
2026-05-08 21:48 41.24452 -72.82019 9438 ft 308 kts 45°
2026-05-08 21:48 41.25805 -72.79816 9437 ft 307 kts 45°
2026-05-08 21:48 41.27162 -72.77631 9436 ft 308 kts 45°
2026-05-08 21:49 41.28541 -72.75442 9438 ft 309 kts 45°
2026-05-08 21:49 41.29912 -72.73245 9438 ft 307 kts 45°
2026-05-08 21:49 41.31278 -72.71051 9447 ft 309 kts 45°
2026-05-08 21:49 41.32644 -72.68864 9440 ft 311 kts 45°
2026-05-08 21:50 41.34016 -72.66660 9439 ft 309 kts 45°
2026-05-08 21:50 41.35381 -72.64460 9438 ft 308 kts 45°
2026-05-08 21:50 41.36750 -72.62261 9438 ft 309 kts 45°
2026-05-08 21:50 41.38123 -72.60059 9444 ft 309 kts 45°
2026-05-08 21:51 41.39493 -72.57852 9444 ft 310 kts 45°
2026-05-08 21:51 41.40870 -72.55630 9443 ft 310 kts 45°
2026-05-08 21:51 41.42244 -72.53415 9443 ft 310 kts 45°
2026-05-08 21:51 41.43621 -72.51194 9445 ft 310 kts 45°
2026-05-08 21:52 41.44995 -72.48974 9442 ft 310 kts 44°
2026-05-08 21:52 41.46362 -72.46765 9443 ft 307 kts 44°
2026-05-08 21:52 41.47726 -72.44560 9440 ft 310 kts 45°
2026-05-08 21:52 41.49100 -72.42336 9428 ft 309 kts 45°
2026-05-08 21:53 41.50462 -72.40129 9423 ft 308 kts 45°
2026-05-08 21:53 41.51830 -72.37913 9421 ft 309 kts 45°
2026-05-08 21:53 41.53180 -72.35725 9422 ft 310 kts 45°
2026-05-08 21:53 41.54569 -72.33470 9420 ft 310 kts 45°
2026-05-08 21:54 41.55939 -72.31243 9427 ft 311 kts 45°
2026-05-08 21:54 41.57309 -72.29017 9422 ft 309 kts 45°
2026-05-08 21:54 41.58670 -72.26802 9421 ft 309 kts 45°
2026-05-08 21:54 41.60035 -72.24587 9426 ft 309 kts 44°
2026-05-08 21:55 41.61372 -72.22404 9423 ft 306 kts 44°
2026-05-08 21:55 41.62730 -72.20188 9426 ft 308 kts 44°
2026-05-08 21:55 41.64084 -72.17979 9432 ft 306 kts 44°
2026-05-08 21:56 41.66791 -72.13564 9429 ft 308 kts 44°
2026-05-08 21:56 41.68140 -72.11353 9429 ft 306 kts 44°
2026-05-08 21:56 41.69491 -72.09139 9428 ft 306 kts 44°
2026-05-08 21:56 41.70844 -72.06929 9430 ft 308 kts 44°
2026-05-08 21:57 41.72198 -72.04708 9431 ft 307 kts 44°
2026-05-08 21:57 41.73548 -72.02491 9427 ft 307 kts 44°
2026-05-08 21:57 41.74901 -72.00278 9426 ft 308 kts 44°
2026-05-08 21:57 41.76234 -71.98085 9426 ft 308 kts 44°
2026-05-08 21:58 41.77615 -71.95815 9426 ft 308 kts 44°
2026-05-08 21:58 41.78962 -71.93599 9439 ft 307 kts 44°
2026-05-08 21:58 41.80311 -71.91377 9424 ft 306 kts 44°
2026-05-08 21:58 41.81641 -71.89186 9419 ft 306 kts 44°
2026-05-08 21:59 41.82979 -71.86983 9421 ft 304 kts 44°
2026-05-08 21:59 41.84317 -71.84777 9419 ft 305 kts 44°
2026-05-08 21:59 41.85659 -71.82562 9414 ft 306 kts 44°
2026-05-08 21:59 41.87000 -71.80345 9415 ft 307 kts 44°
2026-05-08 22:00 41.88346 -71.78118 9414 ft 307 kts 44°
2026-05-08 22:00 41.89691 -71.75892 9414 ft 306 kts 44°
2026-05-08 22:00 41.91026 -71.73680 9414 ft 305 kts 44°
2026-05-08 22:00 41.92358 -71.71475 9418 ft 305 kts 44°
2026-05-08 22:01 41.93611 -71.69375 8150 ft 278 kts 44°
2026-05-08 22:01 41.94853 -71.67334 6204 ft 281 kts 46°
2026-05-08 22:01 41.96055 -71.65350 4708 ft 266 kts 48°
2026-05-08 22:01 41.97169 -71.63482 4419 ft 256 kts 48°
2026-05-08 22:02 41.98341 -71.61550 4424 ft 268 kts 48°
2026-05-08 22:02 41.99514 -71.59596 4426 ft 272 kts 48°
2026-05-08 22:02 42.00703 -71.57615 4426 ft 272 kts 48°
2026-05-08 22:02 42.01890 -71.55635 4430 ft 272 kts 48°
2026-05-08 22:03 42.03064 -71.53680 4430 ft 274 kts 48°
2026-05-08 22:03 42.04257 -71.51691 4427 ft 272 kts 48°
2026-05-08 22:03 42.05447 -71.49706 4424 ft 273 kts 48°
2026-05-08 22:03 42.06643 -71.47710 4427 ft 273 kts 48°
2026-05-08 22:04 42.07836 -71.45709 4427 ft 273 kts 48°
2026-05-08 22:04 42.09026 -71.43718 4432 ft 273 kts 48°
2026-05-08 22:04 42.10211 -71.41727 4435 ft 273 kts 48°
2026-05-08 22:04 42.11409 -71.39738 4426 ft 273 kts 48°
2026-05-08 22:05 42.12582 -71.37774 4430 ft 273 kts 48°
2026-05-08 22:05 42.13775 -71.35767 4428 ft 274 kts 48°
2026-05-08 22:05 42.14968 -71.33767 4428 ft 275 kts 48°
2026-05-08 22:05 42.16164 -71.31762 4429 ft 274 kts 48°
2026-05-08 22:06 42.17353 -71.29763 4427 ft 273 kts 48°
2026-05-08 22:06 42.18540 -71.27764 4418 ft 272 kts 48°
2026-05-08 22:06 42.19727 -71.25770 4408 ft 273 kts 48°
2026-05-08 22:06 42.20908 -71.23780 4412 ft 272 kts 48°
2026-05-08 22:07 42.22101 -71.21775 4413 ft 273 kts 48°
2026-05-08 22:07 42.23288 -71.19770 4411 ft 274 kts 48°
2026-05-08 22:07 42.24469 -71.17779 4339 ft 262 kts 48°
2026-05-08 22:07 42.25571 -71.15912 3087 ft 253 kts 48°
2026-05-08 22:08 42.26650 -71.14097 2908 ft 251 kts 47°
2026-05-08 22:08 42.27698 -71.12329 2906 ft 234 kts 48°
2026-05-08 22:08 42.28687 -71.10662 2892 ft 223 kts 47°
2026-05-08 22:08 42.29646 -71.09039 2887 ft 220 kts 47°
2026-05-08 22:09 42.30603 -71.07419 2891 ft 220 kts 47°
2026-05-08 22:09 42.31551 -71.05798 2890 ft 220 kts 48°
2026-05-08 22:09 42.32506 -71.04184 2889 ft 219 kts 47°
2026-05-08 22:09 42.33459 -71.02580 2893 ft 220 kts 47°
2026-05-08 22:10 42.34421 -71.00942 2796 ft 226 kts 48°
2026-05-08 22:10 42.35381 -70.99303 2542 ft 220 kts 48°
2026-05-08 22:10 42.36325 -70.97688 2277 ft 218 kts 47°
2026-05-08 22:10 42.37272 -70.96101 2017 ft 215 kts 46°
2026-05-08 22:11 42.38204 -70.94519 1759 ft 216 kts 47°
2026-05-08 22:11 42.39142 -70.92913 1506 ft 218 kts 47°
2026-05-08 22:11 42.40068 -70.91331 1399 ft 211 kts 46°
2026-05-08 22:11 42.40991 -70.89780 1397 ft 213 kts 46°
2026-05-08 22:12 42.41945 -70.88191 1413 ft 215 kts 42°
2026-05-08 22:12 42.43081 -70.87039 1433 ft 199 kts 17°
2026-05-08 22:12 42.44297 -70.86920 1671 ft 167 kts 325°
2026-05-08 22:12 42.44805 -70.88103 1779 ft 157 kts 259°
2026-05-08 22:13 42.44299 -70.89449 1733 ft 164 kts 242°
2026-05-08 22:13 42.43554 -70.90642 1725 ft 173 kts 227°
2026-05-08 22:13 42.42702 -70.91777 1748 ft 171 kts 229°
2026-05-08 22:13 42.41620 -70.92696 1315 ft 195 kts 207°
2026-05-08 22:14 42.40390 -70.93443 1228 ft 194 kts 211°
2026-05-08 22:14 42.39198 -70.94299 1086 ft 188 kts 227°
2026-05-08 22:14 42.38508 -70.95739 828 ft 179 kts 240°
2026-05-08 22:14 42.37718 -70.97004 912 ft 158 kts 231°
2026-05-08 22:15 42.36971 -70.97889 674 ft 138 kts 208°
2026-05-08 22:15 42.36256 -70.98379 443 ft 96 kts 227°
2026-05-08 22:15 42.35981 -70.99086 140 ft 79 kts 253°
2026-05-08 22:15 42.35865 -70.99678 24 ft 53 kts 262°
2026-05-08 22:16 42.35802 -71.00014 27 ft 27 kts 255°
2026-05-08 22:16 42.35763 -71.00227 20 ft 20 kts 256°
2026-05-08 22:16 42.35741 -71.00350 20 ft 8 kts 259°
2026-05-08 22:16 42.35712 -71.00535 18 ft 38 kts 256°
2026-05-08 22:17 42.35668 -71.00767 16 ft 8 kts 256°
2026-05-08 22:17 42.35665 -71.00785 17 ft 0 kts 253°
2026-05-08 22:17 42.35653 -71.00840 17 ft 25 kts 253°
2026-05-08 22:17 42.35653 -71.01129 19 ft 15 kts 292°
2026-05-08 22:18 42.35684 -71.01200 19 ft 0 kts 309°
2026-05-08 22:18 42.35687 -71.01206 19 ft 4 kts 308°
2026-05-08 22:18 42.35717 -71.01258 19 ft 9 kts 306°
2026-05-08 22:18 42.35744 -71.01319 21 ft 0 kts 292°
2026-05-08 22:19 42.35746 -71.01328 21 ft 0 kts 291°
2026-05-08 22:20 42.35750 -71.01342 22 ft 10 kts 290°
2026-05-08 22:20 42.35791 -71.01496 25 ft 8 kts 289°
2026-05-08 22:20 42.35808 -71.01557 26 ft 5 kts 319°
2026-05-08 22:20 42.35846 -71.01568 24 ft 0 kts 16°
2026-05-08 22:21 42.35867 -71.01560 24 ft 11 kts 17°
2026-05-08 22:21 42.36001 -71.01499 22 ft 29 kts 18°
2026-05-08 22:21 42.36238 -71.01379 19 ft 44 kts 21°
2026-05-08 22:21 42.36468 -71.01269 18 ft 35 kts 19°
2026-05-08 22:22 42.36673 -71.01171 22 ft 21 kts 17°
2026-05-08 22:22 42.36828 -71.01197 18 ft 27 kts 320°
2026-05-08 22:22 42.36964 -71.01374 20 ft 27 kts 316°
2026-05-08 22:22 42.37103 -71.01558 23 ft 28 kts 315°
2026-05-08 22:23 42.37242 -71.01749 23 ft 29 kts 315°
2026-05-08 22:23 42.37390 -71.01948 20 ft 31 kts 314°
2026-05-08 22:23 42.37421 -71.01991 19 ft 1 kts 315°
2026-05-08 22:23 42.37448 -71.02030 19 ft 11 kts 314°
2026-05-08 22:24 42.37535 -71.02133 18 ft 22 kts 320°
2026-05-08 22:24 42.37653 -71.02289 18 ft 22 kts 308°
2026-05-08 22:24 42.37656 -71.02406 19 ft 13 kts 238°
2026-05-08 22:24 42.37624 -71.02465 19 ft 0 kts 223°